| time (UTC) | temp F | wind direction | speed MPH | gust MPH | rain 1hr in | rain 24hr in | rain mn in | humidity % | barometer mb |
| 20260506150002 | 51 | 265 | 3.0 | 8.0 | 0.00 | 0.00 | 0.00 | 90 | 1021.1 |
| 20260506144501 | 50 | 207 | 3.0 | 7.0 | 0.00 | 0.00 | 0.00 | 90 | 1020.9 |
| 20260506143101 | 51 | 236 | 1.0 | 11.0 | 0.00 | 0.00 | 0.00 | 90 | 1020.9 |
| 20260506141559 | 50 | 170 | 2.0 | 8.0 | 0.00 | 0.00 | 0.00 | 90 | 1020.9 |
| 20260506140104 | 50 | 179 | 2.0 | 7.0 | 0.00 | 0.00 | 0.00 | 91 | 1020.8 |
| 20260506134558 | 50 | 166 | 2.0 | 5.0 | 0.00 | 0.00 | 0.00 | 91 | 1020.8 |
| 20260506133055 | 50 | 223 | 3.0 | 7.0 | 0.00 | 0.00 | 0.00 | 91 | 1020.4 |
| 20260506131607 | 50 | 165 | 1.0 | 10.0 | 0.00 | 0.00 | 0.00 | 91 | 1020.3 |
| 20260506130057 | 50 | 180 | 2.0 | 4.0 | 0.00 | 0.00 | 0.00 | 91 | 1020.4 |
| 20260506124554 | 50 | 158 | 2.0 | 6.0 | 0.00 | 0.00 | 0.00 | 91 | 1020.2 |
| 20260506123054 | 50 | 194 | 3.0 | 11.0 | 0.00 | 0.00 | 0.00 | 91 | 1020.4 |
| 20260506121556 | 50 | 136 | 3.0 | 8.0 | 0.00 | 0.00 | 0.00 | 91 | 1020.2 |
| 20260506120053 | 50 | 178 | 3.0 | 8.0 | 0.00 | 0.00 | 0.00 | 91 | 1020.0 |
| 20260506114553 | 50 | 123 | 3.0 | 7.0 | 0.00 | 0.00 | 0.00 | 91 | 1019.8 |
| 20260506113048 | 50 | 202 | 3.0 | 7.0 | 0.00 | 0.00 | 0.00 | 91 | 1019.9 |
| 20260506111547 | 50 | 186 | 3.0 | 7.0 | 0.00 | 0.00 | 0.00 | 92 | 1019.9 |
| 20260506110045 | 50 | 194 | 3.0 | 9.0 | 0.00 | 0.00 | 0.00 | 92 | 1019.6 |
| 20260506104545 | 50 | 219 | 3.0 | 7.0 | 0.00 | 0.00 | 0.00 | 92 | 1019.4 |
| 20260506103040 | 50 | 136 | 2.0 | 7.0 | 0.00 | 0.00 | 0.00 | 92 | 1019.3 |
| 20260506101538 | 50 | 240 | 4.0 | 9.0 | 0.00 | 0.00 | 0.00 | 92 | 1019.0 |
| 20260506100042 | 50 | 181 | 3.0 | 8.0 | 0.00 | 0.00 | 0.00 | 92 | 1019.0 |
| 20260506094536 | 50 | 155 | 3.0 | 11.0 | 0.00 | 0.00 | 0.00 | 92 | 1019.0 |
| 20260506093034 | 50 | 162 | 5.0 | 10.0 | 0.00 | 0.00 | 0.00 | 92 | 1018.9 |
| 20260506091532 | 50 | 158 | 4.0 | 11.0 | 0.00 | 0.00 | 0.00 | 92 | 1018.9 |
| 20260506090030 | 50 | 172 | 4.0 | 11.0 | 0.00 | 0.00 | 0.00 | 92 | 1018.8 |
| 20260506084529 | 50 | 167 | 2.0 | 7.0 | 0.00 | 0.00 | 0.00 | 92 | 1018.7 |
| 20260506083027 | 50 | 188 | 4.0 | 9.0 | 0.00 | 0.00 | 0.00 | 92 | 1018.7 |
| 20260506081525 | 50 | 134 | 4.0 | 13.0 | 0.00 | 0.00 | 0.00 | 92 | 1018.7 |
| 20260506073019 | 50 | 177 | 3.0 | 6.0 | 0.00 | 0.00 | 0.00 | 91 | 1018.2 |
| 20260506071518 | 50 | 189 | 4.0 | 8.0 | 0.00 | 0.00 | 0.00 | 91 | 1018.2 |
| 20260506061512 | 51 | 223 | 2.0 | 7.0 | 0.00 | 0.00 | 0.00 | 91 | 1017.9 |
| 20260506044515 | 52 | 192 | 4.0 | 10.0 | 0.00 | 0.00 | 0.00 | 89 | 1017.0 |
| 20260506043008 | 52 | 244 | 4.0 | 9.0 | 0.00 | 0.00 | 0.00 | 88 | 1017.0 |
| 20260506041508 | 52 | 150 | 3.0 | 8.0 | 0.00 | 0.00 | 0.00 | 88 | 1016.8 |
| 20260506040008 | 53 | 207 | 4.0 | 8.0 | 0.00 | 0.00 | 0.00 | 87 | 1016.6 |
| 20260506034508 | 53 | 148 | 4.0 | 9.0 | 0.00 | 0.00 | 0.00 | 86 | 1016.2 |
| 20260506033007 | 54 | 221 | 1.0 | 8.0 | 0.00 | 0.00 | 0.00 | 85 | 1016.2 |
| 20260506031516 | 55 | 168 | 3.0 | 8.0 | 0.00 | 0.00 | 0.00 | 84 | 1016.1 |
| 20260506030017 | 56 | 196 | 3.0 | 10.0 | 0.00 | 0.00 | 0.00 | 83 | 1016.1 |
| 20260506024517 | 56 | 161 | 2.0 | 8.0 | 0.00 | 0.00 | 0.00 | 83 | 1016.2 |
| 20260506023007 | 57 | 234 | 2.0 | 9.0 | 0.00 | 0.00 | 0.00 | 82 | 1016.2 |
| 20260506021505 | 57 | 244 | 2.0 | 11.0 | 0.00 | 0.00 | 0.00 | 81 | 1016.2 |
| 20260506020004 | 58 | 207 | 3.0 | 10.0 | 0.00 | 0.00 | 0.00 | 81 | 1016.2 |
| 20260506014504 | 58 | 196 | 3.0 | 11.0 | 0.00 | 0.00 | 0.00 | 80 | 1016.1 |
| 20260506013003 | 59 | 224 | 2.0 | 9.0 | 0.00 | 0.00 | 0.00 | 80 | 1016.1 |
| 20260506011502 | 59 | 154 | 2.0 | 8.0 | 0.00 | 0.00 | 0.00 | 80 | 1016.1 |
| 20260506010005 | 59 | 168 | 1.0 | 11.0 | 0.00 | 0.00 | 0.00 | 79 | 1016.1 |
| 20260506004505 | 61 | 172 | 4.0 | 9.0 | 0.00 | 0.00 | 0.00 | 76 | 1016.0 |
| 20260506003002 | 62 | 134 | 2.0 | 6.0 | 0.00 | 0.00 | 0.00 | 76 | 1016.1 |
| 20260506001501 | 62 | 178 | 4.0 | 7.0 | 0.00 | 0.00 | 0.00 | 75 | 1016.2 |
| 20260506000001 | 62 | 171 | 2.0 | 9.0 | 0.00 | 0.00 | 0.00 | 75 | 1016.4 |
| 20260505234601 | 62 | 221 | 2.0 | 7.0 | 0.00 | 0.00 | 0.00 | 75 | 1016.5 |
| 20260505233116 | 62 | 192 | 3.0 | 8.0 | 0.00 | 0.00 | 0.00 | 75 | 1016.7 |
| 20260505231554 | 61 | 20 | 3.0 | 8.0 | 0.00 | 0.00 | 0.00 | 79 | 1016.8 |
| 20260505230054 | 60 | 174 | 4.0 | 9.0 | 0.00 | 0.00 | 0.00 | 79 | 1016.9 |
| 20260505224553 | 60 | 179 | 5.0 | 10.0 | 0.00 | 0.00 | 0.00 | 78 | 1017.0 |
| 20260505223052 | 60 | 180 | 3.0 | 9.0 | 0.00 | 0.00 | 0.00 | 79 | 1017.1 |
| 20260505221551 | 60 | 138 | 3.0 | 7.0 | 0.00 | 0.00 | 0.00 | 79 | 1017.3 |
| 20260505220048 | 60 | 157 | 3.0 | 10.0 | 0.00 | 0.00 | 0.00 | 80 | 1017.4 |
| 20260505214547 | 60 | 217 | 4.0 | 9.0 | 0.00 | 0.00 | 0.00 | 79 | 1017.4 |
| 20260505213048 | 60 | 165 | 1.0 | 6.0 | 0.00 | 0.00 | 0.00 | 81 | 1017.4 |
| 20260505211545 | 59 | 147 | 2.0 | 10.0 | 0.00 | 0.00 | 0.00 | 81 | 1017.4 |
| 20260505210042 | 59 | 329 | 1.0 | 7.0 | 0.00 | 0.00 | 0.00 | 82 | 1017.6 |
| 20260505204541 | 59 | 239 | 2.0 | 7.0 | 0.00 | 0.00 | 0.00 | 82 | 1017.8 |
| 20260505203048 | 59 | 176 | 3.0 | 6.0 | 0.00 | 0.00 | 0.00 | 82 | 1017.7 |
| 20260505201537 | 58 | 275 | 2.0 | 5.0 | 0.00 | 0.00 | 0.00 | 83 | 1017.7 |
| 20260505200037 | 57 | 236 | 2.0 | 7.0 | 0.00 | 0.00 | 0.00 | 85 | 1017.7 |
| 20260505194534 | 57 | 194 | 3.0 | 6.0 | 0.00 | 0.00 | 0.00 | 86 | 1017.8 |
| 20260505193042 | 57 | 158 | 2.0 | 6.0 | 0.00 | 0.00 | 0.00 | 85 | 1017.8 |
| 20260505191532 | 56 | 255 | 3.0 | 6.0 | 0.00 | 0.00 | 0.00 | 86 | 1017.8 |
| 20260505190039 | 56 | 178 | 1.0 | 6.0 | 0.00 | 0.00 | 0.00 | 86 | 1017.8 |
| 20260505184531 | 56 | 201 | 1.0 | 5.0 | 0.00 | 0.00 | 0.00 | 87 | 1017.8 |
| 20260505183027 | 55 | 278 | 1.0 | 6.0 | 0.00 | 0.00 | 0.00 | 88 | 1017.8 |
| 20260505181523 | 55 | 252 | 2.0 | 8.0 | 0.00 | 0.00 | 0.00 | 88 | 1017.7 |
| 20260505180033 | 55 | 176 | 4.0 | 9.0 | 0.00 | 0.00 | 0.00 | 88 | 1017.7 |
| 20260505174521 | 55 | 258 | 1.0 | 6.0 | 0.00 | 0.00 | 0.00 | 90 | 1017.7 |
| 20260505173019 | 54 | 264 | 1.0 | 7.0 | 0.00 | 0.00 | 0.00 | 90 | 1017.7 |
| 20260505171518 | 54 | 249 | 0.0 | 4.0 | 0.00 | 0.00 | 0.00 | 92 | 1017.6 |
| 20260505170019 | 53 | 201 | 2.0 | 8.0 | 0.00 | 0.00 | 0.00 | 92 | 1017.6 |
| 20260505164517 | 53 | 215 | 0.0 | 5.0 | 0.00 | 0.00 | 0.00 | 93 | 1017.5 |
| 20260505163015 | 52 | 182 | 1.0 | 4.0 | 0.00 | 0.00 | 0.00 | 93 | 1017.5 |
| 20260505161517 | 52 | 163 | 1.0 | 3.0 | 0.00 | 0.00 | 0.00 | 93 | 1017.7 |
| 20260505153016 | 52 | 180 | 1.0 | 4.0 | 0.00 | 0.00 | 0.00 | 93 | 1017.4 |
| 20260505151511 | 52 | 150 | 2.0 | 5.0 | 0.00 | 0.00 | 0.00 | 93 | 1017.2 |